This is the latest recevied weather packets stored in our database for station/object KE8WAY. If no packets are shown the sender has not sent any weather packets the latest 10 day(s).
| Time | Temp. | Humidity | Pressure | Rain* | Wind** | Luminosity | Snow |
|---|---|---|---|---|---|---|---|
| 1778179662 | 14.44° C | 35% | 1011.7 hPa | 0 mm | - | 478 W/m² | - |
| 1778179359 | 13.89° C | 34% | 1011.9 hPa | 0 mm | - | 798 W/m² | - |
| 1778179056 | 12.78° C | 37% | 1011.8 hPa | 0 mm | - | 219 W/m² | - |
| 1778178753 | 13.33° C | 37% | 1011.8 hPa | 0 mm | - | 878 W/m² | - |
| 1778178450 | 13.89° C | 37% | 1011.9 hPa | 0 mm | - | 573 W/m² | - |
| 1778178145 | 13.33° C | 36% | 1012 hPa | 0 mm | - | 203 W/m² | - |
| 1778177842 | 13.89° C | 36% | 1012 hPa | 0 mm | - | 772 W/m² | - |
| 1778177539 | 13.33° C | 37% | 1011.9 hPa | 0 mm | - | 775 W/m² | - |
| 1778177235 | 13.33° C | 41% | 1011.9 hPa | 0 mm | - | 765 W/m² | - |
| 1778176932 | 13.33° C | 38% | 1011.8 hPa | 0 mm | - | 172 W/m² | - |
| 1778176628 | 13.33° C | 38% | 1012 hPa | 0 mm | - | 764 W/m² | - |
| 1778176325 | 12.22° C | 39% | 1012.2 hPa | 0 mm | - | 790 W/m² | - |
| 1778176022 | 12.22° C | 42% | 1012.2 hPa | 0 mm | - | 339 W/m² | - |
| 1778175719 | 12.78° C | 39% | 1012.3 hPa | 0 mm | - | 202 W/m² | - |
| 1778175411 | 12.78° C | 39% | 1012.2 hPa | 0 mm | - | 874 W/m² | - |
| 1778175108 | 12.78° C | 39% | 1012 hPa | 0 mm | - | 822 W/m² | - |
| 1778174804 | 12.78° C | 41% | 1012.2 hPa | 0 mm | - | 179 W/m² | - |
| 1778174502 | 13.33° C | 41% | 1012.2 hPa | 0 mm | - | 821 W/m² | - |
| 1778174202 | 12.78° C | 47% | 1012.2 hPa | 0 mm | - | 765 W/m² | - |
| 1778173899 | 13.33° C | 39% | 1012.3 hPa | 0 mm | - | 741 W/m² | - |
| 1778173596 | 13.33° C | 40% | 1012.3 hPa | 0 mm | - | 745 W/m² | - |
| 1778173293 | 12.78° C | 42% | 1012.2 hPa | 0 mm | - | 229 W/m² | - |
| 1778172989 | 12.78° C | 40% | 1012.4 hPa | 0 mm | - | 222 W/m² | - |
| 1778172685 | 13.33° C | 43% | 1012.4 hPa | 0 mm | - | 750 W/m² | - |
| 1778172381 | 12.78° C | 46% | 1012.3 hPa | 0 mm | - | 800 W/m² | - |
* Rain latest hour (hover to see other rain measurements)
** Current wind speed in m/s (hover to see current wind gust speed)